[Iaude] MPEC R76: 2005 TS45 [a=2.35,e=0.45,i=3.0,H=21.51]

mpec at marsden.cfa.harvard.edu mpec at marsden.cfa.harvard.edu
Sat Sep 9 10:10:17 EDT 2023


M.P.E.C. 2023-R76                             Issued 2023 September 9, 14:08 UT

     The Minor Planet Electronic Circulars contain information on unusual
         minor planets, routine data on comets and natural satellites,
         and occasional editorial announcements.  They are published
    on behalf of Division F of the International Astronomical Union by the
          Minor Planet Center, Smithsonian Astrophysical Observatory,
                          Cambridge, MA 02138, U.S.A.
			  
             Prepared using the Tamkin Foundation Computer Network

                              MPC at CFA.HARVARD.EDU
            URL https://www.minorplanetcenter.net/    ISSN 1523-6714

                                   2005 TS45                                    


                           Revision to MPEC 2005-T59                            

Additional Observations:
     K05T45S  C2023 07 22.50352421 47 16.148-12 14 05.83         21.64GVER076F51
     K05T45S  C2023 07 22.51449821 47 16.201-12 14 01.34         21.14GVER076F51
     K05T45S  C2023 07 22.52549821 47 16.216-12 13 57.26         21.29GVER076F51
     K05T45S  C2023 07 22.53646621 47 16.251-12 13 52.93         21.28GVER076F51
     K05T45S  C2023 08 05.53012221 46 27.036-10 44 51.82         22.11GVER076F51
     K05T45S  C2023 08 05.54254321 46 26.759-10 44 47.00         21.45GVER076F51
     K05T45S  C2023 08 05.55498421 46 26.502-10 44 42.37         21.86GVER076F51
     K05T45S  C2023 08 05.56742521 46 26.226-10 44 37.20         21.23GVER076F51
     K05T45S 1C2023 09 07.18243021 34 29.658-07 13 05.30         20.60GVER076G96
     K05T45S 1C2023 09 07.18756021 34 29.600-07 13 03.00         20.72GVER076G96
     K05T45S 1C2023 09 07.19268721 34 29.500-07 13 00.59         21.12GVER076G96
     K05T45S 1C2023 09 07.19781621 34 29.420-07 12 59.00         20.61GVER076G96
     K05T45S  C2023 09 07.34224321 34 28.274-07 11 53.26         21.15wXER076F51
     K05T45S  C2023 09 07.36453421 34 27.912-07 11 43.77         21.02wXER076F51
     K05T45S  C2023 09 07.37563121 34 27.732-07 11 39.12         21.35wXER076F51
     K05T45S  C2023 09 08.37088721 34 22.157-07 04 34.28         21.01wXER076F52
     K05T45S  C2023 09 08.39272521 34 21.850-07 04 24.91         21.54wXER076F52
     K05T45S  C2023 09 08.40363321 34 21.698-07 04 20.12         21.30wXER076F52
     K05T45S  C2023 09 08.50810121 34 20.424-07 03 34.45         20.96GVER076F51
     K05T45S  C2023 09 08.50891821 34 20.416-07 03 34.04         20.85GVER076F51

Observer details:
F51 Pan-STARRS 1, Haleakala.  Observers J. Bulger, K. Chambers, T. Lowe, P.
    Minguez, A. Schultz, I. Smith.  Measurers S. Chastel, J. Fairlamb, M.
    Huber, Y. Ramanjooloo, R. Wainscoat, R. Weryk, K. Chambers, T. de Boer, J.
    Bulger, H. Gao, C.-C. Lin, T. Lowe, E. Magnier, P. Minguez, A. Schultz, I.
    Smith.  1.8-m Ritchey-Chretien + CCD.
F52 Pan-STARRS 2, Haleakala.  Observers J. Bulger, T. Lowe, P. Minguez, A.
    Schultz, I. Smith.  Measurers K. Chambers, T. de Boer, J. Bulger, J.
    Fairlamb, H. Gao, M. Huber, C.-C. Lin, T. Lowe, E. Magnier, P. Minguez, Y.
    Ramanjooloo, A. Schultz, I. Smith, R. Wainscoat, R. Weryk.  1.8-m Ritchey-
    Chretien + CCD.
G96 Mt. Lemmon Survey.  Observer A. R. Gibbs.  Measurers E. J. Christensen, D.
    Fay, J. B. Fazekas, D. C. Fuls, A. R. Gibbs, A. D. Grauer, H. Groeller, J.
    K. Hogan, R. A. Kowalski, S. M. Larson, G. J. Leonard, D. Rankin, R. L.
    Seaman, A. Serrano, F. C. Shelly, K. W. Wierzchos.  1.5-m reflector + 10K
    CCD.

First and last observations above in comparison with prediction:
Residuals in seconds of arc (or two decimals in degrees), reference and Delta-T
230722 F51 7.00+ 2.72+    230908 F51 9.99+ 4.31+    MPO750185   +3.86 days

Orbital elements:
2005 TS45                                                Earth MOID = 0.2919 AU
Epoch 2023 Sept. 13.0 TT = JDT 2460200.5                Veres                   
M 350.30035              (2000.0)            P               Q                  
n   0.27306334     Peri.   70.29088     +0.97996375     -0.19406764             
a   2.3530281      Node   300.87631     +0.15753128     +0.89288871             
e   0.4528328      Incl.    2.99337     +0.12188082     +0.40630962             
P   3.61           H   21.51          G   0.15           U   0                  
Residuals in seconds of arc
051007 G96  0.4+  0.4+    051009 J95  0.5+  0.2+    230722 F51  0.2-  0.2+
051007 G96  0.0   0.3+    051009 A17  0.2+  0.2-    230722 F51  0.2+  0.4+
051007 G96  0.1+  0.4+    051009 J95  0.2+  0.1+    230722 F51  0.1+  0.2+
051007 G96  0.2+  0.2+    051009 J95  0.0   0.2-    230722 F51  0.2+  0.2+
051007 G96  0.1+  0.4+    051009 A17  0.1+  0.2+    230805 F51  0.1-  0.3-
051007 G96  0.2-  0.3+    051012 448  0.1-  0.0     230805 F51  0.2-  0.2-
051007 G96  0.1-  0.1+    051012 448  0.2-  0.4+    230805 F51  0.0   0.4-
051007 G96  0.1-  0.2+    051012 448  0.5-  0.1+    230805 F51  0.2-  0.1-
051007 G96  0.4+  0.5+    051012 152  1.0-  0.1-    230907 G96  0.0   0.2-
051007 G96  0.2+  0.4+    051012 152  0.6-  0.0     230907 G96  0.3+  0.1-
051007 G96  0.2+  0.4+    051012 152  0.8-  0.1-    230907 G96  0.0   0.2+
051007 G96  0.0   0.5+    051013 G96  0.1+  0.0     230907 G96  0.0   0.4-
051007 G96  0.0   0.3+    051013 G96  0.5+  0.0     230907 F51  0.1-  0.0
051007 G96  0.1-  0.4+    051023 715  0.4+  0.9+    230907 F51  0.0   0.0
051007 G96  0.4+  0.4+    051023 715  0.2-  1.3+    230907 F51  0.0   0.0
051007 G96  0.3-  0.5+    051023 291  0.2-  0.2-    230908 F52  0.0   0.1-
051008 A17  0.5-  0.2-    051023 291  0.0   0.2-    230908 F52  0.1-  0.1-
051008 A17  0.7+  0.3+    051023 291  0.1+  0.4-    230908 F52  0.1-  0.0
051008 A17  0.0   0.1+    051023 448  0.4-  0.6+    230908 F51  0.1+  0.1-
051009 E12  0.7-  0.0     051023 448  0.0   0.2-    230908 F51  0.1+  0.0
051009 A17  0.1+  0.3+    051023 448  0.7+  0.5-

Ephemeris:
2005 TS45                a,e,i = 2.35, 0.45, 3                   q = 1.2875
Date    TT    R. A. (2000) Decl.     Delta      r    Elong.  Phase     V
2023 08 10    21 45 06.7 -10 16 41   0.4511  1.4613   171.2     6.1    21.1
...
2023 08 25    21 38 35.5 -08 42 00   0.3913  1.3990   171.2     6.4    20.7
...
2023 09 02    21 35 34.4 -07 48 51   0.3723  1.3702   163.5    12.1    20.8
...
2023 09 08    21 34 24.0 -07 07 02   0.3634  1.3511   157.7    16.4    20.8
2023 09 09    21 34 19.9 -06 59 53   0.3624  1.3481   156.8    17.1    20.9
2023 09 10    21 34 18.3 -06 52 41   0.3614  1.3452   155.9    17.8    20.9
...
2023 09 16    21 35 07.3 -06 08 05   0.3580  1.3291   150.5    21.8    21.0
...
2023 09 24    21 39 12.4 -05 04 05   0.3592  1.3114   144.1    26.6    21.1
...
2023 10 09    21 56 45.5 -02 46 43   0.3764  1.2912   134.5    33.5    21.3

A. U. Tomatic                (C) Copyright 2023 MPC           M.P.E.C. 2023-R76





More information about the Iaude mailing list